Location: CNYAC Observatory
(43.2150°N, 74.9500°W)
Time: 22:03:57
(UTC-04:00)

Meteor 1-22 Rocket - Pass Details

Date: 29 May 2018
Orbit: 788 x 940 km, 81.2° (Epoch: 17 August)

Event Time Altitude Azimuth Distance (km) Brightness Sun altitude
Rises 00:00:56 0° 337° (NNW) 3,321 8.7 -23.9°
Reaches altitude 10° 00:03:45 10° 323° (NW) 2,372 7.4 -24.0°
Maximum altitude 00:07:51 23° 273° (W) 1,627 5.8 -24.2°
Enters shadow 00:09:42 19° 244° (WSW) 1,798 5.8 -24.3°
